Showing default

KUIPER-00199, 67771

Orbit data source: Space-Track

KUIPER-00199, 67771 is a payload satellite owned by Kuiper Systems (US) in LEO that was launched on Thu, 12 Feb 2026 UTC via an ARIANE 64 launch vehicle from the French Guiana (FRGUI). Payload-class satellites include a variety of spacecraft equipped with specific instruments for various scientific and technological missions. These include communications satellites like Starlink; space stations such as the ISS; scientific satellites like the Hubble; Earth observation satellites from companies like Planet Labs, Umbra, and HawkEye 360; GPS; miniature CubeSats for education and research; and military/defense satellites.

Loading next visibility...
Identifier
67771, 2026-030H
Orbit
LEO
Country
Flag of USUS
Related business
Manufacturer
Kuiper Systems
Mission
Operational Commercial Communications
Bus & Motor
KUIPER, Unknown motor
Mass
~490 kg wet, ~490 kg dry
Launch date (UTC)
2026-02-12 (4 months ago)
Launch vehicle
ARIANE 64
Launch site
French Guiana (FRGUI)
Object type
Payload
Rocket body
Debris
Shape & HBR
Box + 2 Pan, 3.4 m
Radar Cross Section
2.326 m², Large (>1 m²)

Expand to show TLE details & history
Last TLE update: 21 hours ago

TLE from 21 hours ago
0 KUIPER-00199
1 67771U 26030H   26170.96957199  .00017568  00000-0  49597-3 0  9994
2 67771  51.8813  86.3702 0011160  65.1228 295.0918 15.36403680 20805
Epoch: 2026-06-19T23:16Z
TLE epoch observation values (Epoch: 2026-06-19T23:16:11.019Z)
Latitude
Longitude
-170.86663°
Altitude
454.29 km
Speed
7.643 km/s
True Right ascension
05h 45m 28s
True Declination
0° 00' 00"
Sunlit
Object was in daylight at epoch
Visualization orbit readout
Latitude
Unknown
Longitude
Unknown
Altitude
Unknown
Speed
Unknown
Apparent Right ascension
Unknown
Apparent Declination
Unknown
Sunlit
N/A
Visualization observer readout
Local Sidereal Time
07:21:19
Azimuth
Unknown
Elevation
Unknown
Doppler factor
Unknown
Orbital elements
Apogee altitude
464.848 km
Perigee altitude
449.592 km
Semi-major axis
6,835.357 km
Eccentricity
0.00112
Inclination
51.8813°
RAAN
86.3702°
Arg. of periapsis
65.1228°
True anomaly
294.97592°
Mean anomaly
295.0918°
Eccentric anomaly
295.03386°
Mean motion
3.84062 °/min
Orbital period
93.73 mins
BSTAR
0.00049597
Loading maneuver chart data...
Computing Atmospheric mass density...
Loading historical data...
Loading historical data...
Loading historical data...
Loading historical data...
Loading historical data...
Loading historical data...
Loading historical data...

Documentation

Showing up to 5 results
|